Tracking 28790 objects as of 19-Apr-2024
HD Live streaming from Space Station
objects crossing your sky now

PSLV DEB

Track PSLV DEB now!
10-day predictions


NORAD ID: 27127
Int'l Code: 2001-049BX
Perigee: 467.9 km
Apogee: 491.0 km
Inclination: 97.7 °
Period: 94.0 minutes
Semi major axis: 6850 km
RCS: 0.304 m2 (medium)
Launch date: October 22, 2001
Source: India (IND)
Launch site: SRIHARIKOTA (SRI)

Note: This is SATELLITE DEBRIS
Your satellite tracking list
Your tracking list is empty




NASA's NSSDC Master Catalog

Two Line Element Set (TLE):
1 27127U 01049BX  24110.49883967  .00098373  00000-0  32184-2 0  9995
2 27127  97.6751  96.8738 0016821 147.7234 212.5040 15.31166892212442
Source of the keplerian elements: AFSPC